Wetterdaten: Montag, 05.11.2012
Datum Zeit Temperatur Luftfeuchte Regen Wind Richtung Richtung Taupunkt Windchill Windben
05.11.2012 00:00 4,8 C 95 % 0,0 l/m 0,2 km/h (0 Bft) W-NW 292 4,1 C 4,8 C 0,0 km/h (0 Bft)
05.11.2012 00:05 4,8 C 95 % 0,0 l/m 0,2 km/h (0 Bft) N 360 4,1 C 4,8 C 0,0 km/h (0 Bft)
05.11.2012 00:10 4,7 C 95 % 0,0 l/m 0,2 km/h (0 Bft) W-NW 292 4,0 C 4,7 C 0,0 km/h (0 Bft)
05.11.2012 00:15 4,7 C 95 % 0,7 l/m 0,2 km/h (0 Bft) O-SO 112 4,0 C 4,7 C 0,0 km/h (0 Bft)
05.11.2012 00:20 4,7 C 95 % 0,0 l/m 0,3 km/h (0 Bft) NO 45 4,0 C 4,7 C 2,9 km/h (1 Bft)
05.11.2012 00:25 4,7 C 95 % 0,0 l/m 0,3 km/h (0 Bft) O 90 4,0 C 4,6 C 0,0 km/h (0 Bft)
05.11.2012 00:30 4,6 C 95 % 0,7 l/m 0,2 km/h (0 Bft) N-NO 22 3,9 C 4,6 C 0,0 km/h (0 Bft)
05.11.2012 00:35 4,6 C 95 % 0,0 l/m 0,0 km/h (0 Bft) NW 315 3,9 C 4,5 C 0,0 km/h (0 Bft)
05.11.2012 00:40 4,5 C 96 % 0,7 l/m 0,3 km/h (0 Bft) SO 135 3,9 C 4,4 C 3,4 km/h (1 Bft)
05.11.2012 00:45 4,4 C 96 % 0,0 l/m 1,3 km/h (1 Bft) O-SO 112 3,8 C 4,3 C 3,2 km/h (1 Bft)
05.11.2012 00:50 4,3 C 96 % 0,0 l/m 1,3 km/h (1 Bft) N-NO 22 3,7 C 4,3 C 3,9 km/h (1 Bft)
05.11.2012 00:55 4,3 C 96 % 0,7 l/m 0,2 km/h (0 Bft) W-NW 292 3,7 C 4,3 C 0,0 km/h (0 Bft)
05.11.2012 01:00 4,2 C 96 % 0,0 l/m 0,0 km/h (0 Bft) NO 45 3,6 C 4,2 C 0,0 km/h (0 Bft)
05.11.2012 01:05 4,2 C 96 % 0,7 l/m 0,2 km/h (0 Bft) N 360 3,6 C 4,2 C 0,0 km/h (0 Bft)
05.11.2012 01:10 4,2 C 96 % 0,0 l/m 0,3 km/h (0 Bft) N 360 3,6 C 4,1 C 1,6 km/h (1 Bft)
05.11.2012 01:15 4,1 C 96 % 0,0 l/m 0,3 km/h (0 Bft) O-SO 112 3,5 C 4,1 C 2,9 km/h (1 Bft)
05.11.2012 01:20 4,1 C 96 % 0,7 l/m 0,6 km/h (0 Bft) O-NO 67 3,5 C 4,0 C 0,0 km/h (0 Bft)
05.11.2012 01:25 4,0 C 96 % 0,0 l/m 0,6 km/h (0 Bft) O-SO 112 3,4 C 3,9 C 2,3 km/h (1 Bft)
05.11.2012 01:30 4,1 C 96 % 0,0 l/m 0,2 km/h (0 Bft) O 90 3,5 C 3,9 C 0,0 km/h (0 Bft)
05.11.2012 01:35 4,0 C 96 % 0,0 l/m 0,2 km/h (0 Bft) O 90 3,4 C 3,9 C 0,0 km/h (0 Bft)
05.11.2012 01:40 4,0 C 96 % 0,0 l/m 0,2 km/h (0 Bft) O-SO 112 3,4 C 3,8 C 0,0 km/h (0 Bft)
05.11.2012 01:45 3,9 C 96 % 0,7 l/m 0,2 km/h (0 Bft) W-NW 292 3,3 C 3,8 C 0,0 km/h (0 Bft)
05.11.2012 01:50 3,7 C 96 % 0,0 l/m 0,8 km/h (0 Bft) SO 135 3,1 C 3,7 C 3,7 km/h (1 Bft)
05.11.2012 01:55 3,6 C 96 % 0,0 l/m 1,6 km/h (1 Bft) O 90 3,0 C 3,6 C 0,0 km/h (0 Bft)
05.11.2012 02:00 3,5 C 96 % 0,7 l/m 1,0 km/h (0 Bft) O 90 2,9 C 3,5 C 0,0 km/h (0 Bft)
05.11.2012 02:05 3,5 C 96 % 0,0 l/m 0,6 km/h (0 Bft) SO 135 2,9 C 3,4 C 0,0 km/h (0 Bft)
05.11.2012 02:10 3,4 C 96 % 0,0 l/m 0,5 km/h (0 Bft) NO 45 2,8 C 3,3 C 4,0 km/h (1 Bft)
05.11.2012 02:15 3,3 C 96 % 0,0 l/m 0,3 km/h (0 Bft) N-NO 22 2,7 C 3,2 C 0,0 km/h (0 Bft)
05.11.2012 02:20 3,2 C 96 % 0,0 l/m 0,6 km/h (0 Bft) S-SW 202 2,6 C 3,0 C 5,5 km/h (1 Bft)
05.11.2012 02:25 3,2 C 96 % 0,7 l/m 0,5 km/h (0 Bft) O-NO 67 2,6 C 3,0 C 0,0 km/h (0 Bft)
05.11.2012 02:30 3,1 C 96 % 0,0 l/m 0,2 km/h (0 Bft) O-SO 112 2,5 C 2,9 C 0,0 km/h (0 Bft)
05.11.2012 02:35 3,1 C 96 % 0,0 l/m 0,0 km/h (0 Bft) N 360 2,5 C 2,9 C 0,0 km/h (0 Bft)
05.11.2012 02:40 3,0 C 96 % 0,0 l/m 0,0 km/h (0 Bft) O-NO 67 2,4 C 2,9 C 0,0 km/h (0 Bft)
05.11.2012 02:45 3,0 C 96 % 0,7 l/m 0,0 km/h (0 Bft) N-NW 337 2,4 C 2,9 C 0,0 km/h (0 Bft)
05.11.2012 02:50 3,0 C 96 % 0,0 l/m 0,0 km/h (0 Bft) S 180 2,4 C 2,8 C 0,0 km/h (0 Bft)
05.11.2012 02:55 3,0 C 96 % 0,0 l/m 0,6 km/h (0 Bft) O-SO 112 2,4 C 2,8 C 2,4 km/h (1 Bft)
05.11.2012 03:00 2,9 C 97 % 0,0 l/m 0,6 km/h (0 Bft) SO 135 2,5 C 2,8 C 0,0 km/h (0 Bft)
05.11.2012 03:05 2,9 C 97 % 0,0 l/m 0,6 km/h (0 Bft) N-NO 22 2,5 C 2,7 C 0,0 km/h (0 Bft)
05.11.2012 03:10 2,9 C 97 % 0,0 l/m 0,3 km/h (0 Bft) N-NW 337 2,5 C 2,7 C 0,0 km/h (0 Bft)
05.11.2012 03:15 2,9 C 97 % 0,0 l/m 0,2 km/h (0 Bft) S-SW 202 2,5 C 2,7 C 0,0 km/h (0 Bft)
05.11.2012 03:20 2,9 C 97 % 0,0 l/m 0,0 km/h (0 Bft) W-SW 247 2,5 C 2,7 C 0,0 km/h (0 Bft)
05.11.2012 03:25 2,9 C 97 % 0,7 l/m 0,0 km/h (0 Bft) N-NO 22 2,5 C 2,7 C 0,0 km/h (0 Bft)
05.11.2012 03:30 2,9 C 97 % 0,0 l/m 0,0 km/h (0 Bft) W-NW 292 2,5 C 2,7 C 0,0 km/h (0 Bft)
05.11.2012 03:35 2,9 C 97 % 0,0 l/m 0,3 km/h (0 Bft) SO 135 2,5 C 2,7 C 2,9 km/h (1 Bft)
05.11.2012 03:40 2,9 C 97 % 0,0 l/m 0,5 km/h (0 Bft) S 180 2,5 C 2,7 C 0,0 km/h (0 Bft)
05.11.2012 03:45 2,9 C 97 % 0,0 l/m 0,6 km/h (0 Bft) N-NW 337 2,5 C 2,7 C 2,1 km/h (1 Bft)
05.11.2012 03:50 2,9 C 97 % 0,0 l/m 1,3 km/h (1 Bft) N-NO 22 2,5 C 2,7 C 0,0 km/h (0 Bft)
05.11.2012 03:55 3,0 C 96 % 0,0 l/m 1,4 km/h (1 Bft) O 90 2,4 C 2,8 C 2,1 km/h (1 Bft)
05.11.2012 04:00 2,9 C 97 % 0,0 l/m 0,6 km/h (0 Bft) NO 45 2,5 C 2,8 C 2,9 km/h (1 Bft)
05.11.2012 04:05 3,0 C 96 % 0,0 l/m 1,1 km/h (1 Bft) O-SO 112 2,4 C 2,8 C 3,1 km/h (1 Bft)
05.11.2012 04:10 3,0 C 96 % 0,0 l/m 2,9 km/h (1 Bft) S 180 2,4 C 2,7 C 6,1 km/h (2 Bft)
05.11.2012 04:15 3,1 C 96 % 0,7 l/m 3,2 km/h (1 Bft) O-NO 67 2,5 C 2,6 C 1,6 km/h (1 Bft)
05.11.2012 04:20 3,1 C 96 % 0,0 l/m 3,1 km/h (1 Bft) O-SO 112 2,5 C 2,7 C 9,2 km/h (2 Bft)
05.11.2012 04:25 3,1 C 96 % 0,0 l/m 3,4 km/h (1 Bft) S-SO 157 2,5 C 2,5 C 7,6 km/h (2 Bft)
05.11.2012 04:30 3,1 C 96 % 0,0 l/m 3,4 km/h (1 Bft) N-NO 22 2,5 C 2,5 C 0,0 km/h (0 Bft)
05.11.2012 04:35 3,1 C 96 % 0,0 l/m 2,1 km/h (1 Bft) N-NW 337 2,5 C 2,9 C 0,0 km/h (0 Bft)
05.11.2012 04:40 3,1 C 96 % 0,0 l/m 0,5 km/h (0 Bft) O 90 2,5 C 2,9 C 0,0 km/h (0 Bft)
05.11.2012 04:45 3,0 C 96 % 0,0 l/m 0,3 km/h (0 Bft) SO 135 2,4 C 2,9 C 3,2 km/h (1 Bft)
05.11.2012 04:50 3,0 C 96 % 0,0 l/m 0,6 km/h (0 Bft) W-SW 247 2,4 C 2,9 C 0,0 km/h (0 Bft)
05.11.2012 04:55 2,9 C 97 % 0,0 l/m 0,6 km/h (0 Bft) O-SO 112 2,5 C 2,8 C 0,0 km/h (0 Bft)
05.11.2012 05:00 2,9 C 97 % 0,0 l/m 0,0 km/h (0 Bft) N-NO 22 2,5 C 2,7 C 0,0 km/h (0 Bft)
05.11.2012 05:05 2,9 C 97 % 0,0 l/m 0,0 km/h (0 Bft) N 360 2,5 C 2,7 C 0,0 km/h (0 Bft)
05.11.2012 05:10 2,9 C 97 % 0,0 l/m 0,0 km/h (0 Bft) N-NO 22 2,5 C 2,7 C 0,0 km/h (0 Bft)
05.11.2012 05:15 2,9 C 97 % 0,0 l/m 0,0 km/h (0 Bft) N 360 2,5 C 2,7 C 0,0 km/h (0 Bft)
05.11.2012 05:20 2,9 C 97 % 0,0 l/m 0,2 km/h (0 Bft) O-NO 67 2,5 C 2,8 C 0,0 km/h (0 Bft)
05.11.2012 05:25 3,0 C 96 % 0,0 l/m 0,2 km/h (0 Bft) NO 45 2,4 C 2,8 C 0,0 km/h (0 Bft)
05.11.2012 05:30 3,0 C 97 % 0,7 l/m 0,0 km/h (0 Bft) NO 45 2,6 C 2,8 C 0,0 km/h (0 Bft)
05.11.2012 05:35 3,0 C 97 % 0,0 l/m 0,2 km/h (0 Bft) NO 45 2,6 C 2,9 C 0,0 km/h (0 Bft)
05.11.2012 05:40 3,1 C 97 % 0,0 l/m 0,2 km/h (0 Bft) N-NO 22 2,7 C 2,9 C 0,0 km/h (0 Bft)
05.11.2012 05:45 3,1 C 97 % 0,0 l/m 0,3 km/h (0 Bft) O-SO 112 2,7 C 2,9 C 3,7 km/h (1 Bft)
05.11.2012 05:50 3,2 C 97 % 0,0 l/m 1,8 km/h (1 Bft) NO 45 2,8 C 2,9 C 8,9 km/h (2 Bft)
05.11.2012 05:55 3,2 C 97 % 0,0 l/m 3,1 km/h (1 Bft) O-SO 112 2,8 C 2,8 C 4,8 km/h (1 Bft)
05.11.2012 06:00 3,2 C 97 % 0,0 l/m 4,3 km/h (1 Bft) O-SO 112 2,8 C 2,1 C 4,8 km/h (1 Bft)
05.11.2012 06:05 3,2 C 97 % 0,0 l/m 3,9 km/h (1 Bft) O-SO 112 2,8 C 2,3 C 4,7 km/h (1 Bft)
05.11.2012 06:10 3,2 C 97 % 0,7 l/m 1,6 km/h (1 Bft) O-SO 112 2,8 C 3,1 C 1,9 km/h (1 Bft)
05.11.2012 06:15 3,3 C 97 % 0,0 l/m 1,0 km/h (0 Bft) O 90 2,9 C 3,1 C 0,0 km/h (0 Bft)
05.11.2012 06:20 3,3 C 97 % 0,0 l/m 1,4 km/h (1 Bft) O 90 2,9 C 3,1 C 2,3 km/h (1 Bft)
05.11.2012 06:25 3,3 C 97 % 0,0 l/m 1,3 km/h (1 Bft) SO 135 2,9 C 3,1 C 0,0 km/h (0 Bft)
05.11.2012 06:30 3,2 C 97 % 0,0 l/m 1,1 km/h (1 Bft) SO 135 2,8 C 3,1 C 0,0 km/h (0 Bft)
05.11.2012 06:35 3,2 C 97 % 0,0 l/m 1,9 km/h (1 Bft) O-SO 112 2,8 C 3,1 C 2,3 km/h (1 Bft)
05.11.2012 06:40 3,3 C 97 % 0,0 l/m 2,7 km/h (1 Bft) SO 135 2,9 C 3,1 C 7,1 km/h (2 Bft)
05.11.2012 06:45 3,3 C 97 % 0,0 l/m 2,7 km/h (1 Bft) O-SO 112 2,9 C 3,1 C 6,6 km/h (2 Bft)
05.11.2012 06:50 3,3 C 97 % 0,0 l/m 5,8 km/h (2 Bft) O-SO 112 2,9 C 1,6 C 15,1 km/h (3 Bft)
05.11.2012 06:55 3,3 C 97 % 0,0 l/m 6,9 km/h (2 Bft) O-SO 112 2,9 C 0,7 C 8,9 km/h (2 Bft)
05.11.2012 07:00 3,2 C 97 % 0,0 l/m 6,8 km/h (2 Bft) SO 135 2,8 C 0,8 C 6,4 km/h (2 Bft)
05.11.2012 07:05 3,1 C 97 % 0,0 l/m 6,8 km/h (2 Bft) O-SO 112 2,7 C 0,6 C 8,2 km/h (2 Bft)
05.11.2012 07:10 3,1 C 97 % 0,0 l/m 7,1 km/h (2 Bft) O-SO 112 2,7 C 0,2 C 11,9 km/h (2 Bft)
05.11.2012 07:15 3,1 C 97 % 0,0 l/m 6,8 km/h (2 Bft) SO 135 2,7 C 0,6 C 7,2 km/h (2 Bft)
05.11.2012 07:20 3,0 C 97 % 0,0 l/m 6,4 km/h (2 Bft) S-SO 157 2,6 C 1,0 C 4,8 km/h (1 Bft)
05.11.2012 07:25 3,0 C 97 % 0,0 l/m 5,5 km/h (1 Bft) O-SO 112 2,6 C 1,3 C 6,0 km/h (2 Bft)
05.11.2012 07:30 3,0 C 97 % 0,0 l/m 4,2 km/h (1 Bft) SW 225 2,6 C 1,9 C 4,0 km/h (1 Bft)
05.11.2012 07:35 3,0 C 97 % 0,7 l/m 5,0 km/h (1 Bft) SO 135 2,6 C 1,6 C 11,3 km/h (2 Bft)
05.11.2012 07:40 2,9 C 98 % 0,0 l/m 7,1 km/h (2 Bft) SO 135 2,6 C -0,0 C 9,8 km/h (2 Bft)
05.11.2012 07:45 2,9 C 97 % 0,0 l/m 7,7 km/h (2 Bft) O-SO 112 2,5 C -0,8 C 13,8 km/h (3 Bft)
05.11.2012 07:50 2,8 C 97 % 0,0 l/m 8,5 km/h (2 Bft) O 90 2,4 C -1,9 C 21,2 km/h (4 Bft)
05.11.2012 07:55 2,8 C 97 % 0,0 l/m 9,2 km/h (2 Bft) O-SO 112 2,4 C -2,8 C 6,1 km/h (2 Bft)
05.11.2012 08:00 2,7 C 97 % 0,7 l/m 7,7 km/h (2 Bft) O-SO 112 2,3 C -1,0 C 7,9 km/h (2 Bft)
05.11.2012 08:05 2,7 C 97 % 0,0 l/m 5,1 km/h (1 Bft) N-NO 22 2,3 C 1,2 C 2,9 km/h (1 Bft)
05.11.2012 08:10 2,7 C 97 % 0,0 l/m 3,4 km/h (1 Bft) O-SO 112 2,3 C 2,1 C 4,7 km/h (1 Bft)
05.11.2012 08:15 2,8 C 97 % 0,0 l/m 2,7 km/h (1 Bft) SO 135 2,4 C 2,4 C 2,9 km/h (1 Bft)
05.11.2012 08:20 2,9 C 97 % 0,0 l/m 2,7 km/h (1 Bft) SO 135 2,5 C 2,6 C 4,0 km/h (1 Bft)
05.11.2012 08:25 2,9 C 97 % 0,0 l/m 3,5 km/h (1 Bft) SO 135 2,5 C 2,2 C 5,6 km/h (1 Bft)
05.11.2012 08:30 3,0 C 97 % 0,0 l/m 4,0 km/h (1 Bft) O 90 2,6 C 1,9 C 5,1 km/h (1 Bft)
05.11.2012 08:35 3,0 C 97 % 0,0 l/m 3,2 km/h (1 Bft) SO 135 2,6 C 2,4 C 4,5 km/h (1 Bft)
05.11.2012 08:40 3,1 C 97 % 0,0 l/m 3,4 km/h (1 Bft) O-SO 112 2,7 C 2,5 C 2,9 km/h (1 Bft)
05.11.2012 08:45 3,3 C 97 % 0,0 l/m 3,7 km/h (1 Bft) O-NO 67 2,9 C 2,4 C 3,2 km/h (1 Bft)
05.11.2012 08:50 3,5 C 97 % 0,0 l/m 3,1 km/h (1 Bft) O-NO 67 3,1 C 3,0 C 3,5 km/h (1 Bft)
05.11.2012 08:55 3,6 C 97 % 0,0 l/m 2,4 km/h (1 Bft) O-SO 112 3,2 C 3,4 C 3,5 km/h (1 Bft)
05.11.2012 09:00 3,7 C 97 % 0,0 l/m 1,9 km/h (1 Bft) NO 45 3,3 C 3,6 C 2,9 km/h (1 Bft)
05.11.2012 09:05 3,6 C 97 % 0,0 l/m 1,8 km/h (1 Bft) O-SO 112 3,2 C 3,6 C 3,7 km/h (1 Bft)
05.11.2012 09:10 3,6 C 97 % 0,0 l/m 1,4 km/h (1 Bft) O-SO 112 3,2 C 3,6 C 2,6 km/h (1 Bft)
05.11.2012 09:15 3,6 C 97 % 0,0 l/m 2,1 km/h (1 Bft) O-SO 112 3,2 C 3,6 C 2,4 km/h (1 Bft)
05.11.2012 09:20 3,7 C 97 % 0,0 l/m 1,3 km/h (1 Bft) SO 135 3,3 C 3,6 C 2,3 km/h (1 Bft)
05.11.2012 09:25 3,7 C 97 % 0,0 l/m 0,5 km/h (0 Bft) N-NO 22 3,3 C 3,7 C 0,0 km/h (0 Bft)
05.11.2012 09:30 3,8 C 97 % 0,0 l/m 0,2 km/h (0 Bft) S 180 3,4 C 3,8 C 0,0 km/h (0 Bft)
05.11.2012 09:35 3,8 C 97 % 0,0 l/m 0,0 km/h (0 Bft) SO 135 3,4 C 3,8 C 0,0 km/h (0 Bft)
05.11.2012 09:40 3,9 C 97 % 0,0 l/m 0,0 km/h (0 Bft) N 360 3,5 C 3,9 C 0,0 km/h (0 Bft)
05.11.2012 09:45 4,0 C 96 % 0,0 l/m 0,0 km/h (0 Bft) O-NO 67 3,4 C 4,0 C 0,0 km/h (0 Bft)
05.11.2012 09:50 4,0 C 96 % 0,0 l/m 0,5 km/h (0 Bft) O-SO 112 3,4 C 4,1 C 2,9 km/h (1 Bft)
05.11.2012 09:55 4,0 C 96 % 0,0 l/m 1,1 km/h (1 Bft) NO 45 3,4 C 4,2 C 0,0 km/h (0 Bft)
05.11.2012 10:00 4,1 C 96 % 0,0 l/m 1,0 km/h (0 Bft) O-SO 112 3,5 C 4,3 C 0,0 km/h (0 Bft)
05.11.2012 10:05 4,2 C 96 % 0,0 l/m 0,5 km/h (0 Bft) O-SO 112 3,6 C 4,3 C 1,9 km/h (1 Bft)
05.11.2012 10:10 4,5 C 96 % 0,0 l/m 1,3 km/h (1 Bft) O-SO 112 3,9 C 4,6 C 3,5 km/h (1 Bft)
05.11.2012 10:15 4,6 C 97 % 0,0 l/m 1,8 km/h (1 Bft) O-SO 112 4,2 C 4,8 C 3,1 km/h (1 Bft)
05.11.2012 10:20 4,8 C 97 % 0,0 l/m 1,8 km/h (1 Bft) S-SO 157 4,4 C 5,1 C 1,8 km/h (1 Bft)
05.11.2012 10:25 4,9 C 97 % 0,0 l/m 1,6 km/h (1 Bft) O-SO 112 4,5 C 5,2 C 1,6 km/h (1 Bft)
05.11.2012 10:30 5,1 C 96 % 0,0 l/m 1,3 km/h (1 Bft) SO 135 4,5 C 5,5 C 2,9 km/h (1 Bft)
05.11.2012 10:35 5,2 C 96 % 0,0 l/m 1,3 km/h (1 Bft) O-SO 112 4,6 C 5,5 C 4,3 km/h (1 Bft)
05.11.2012 10:40 5,4 C 96 % 0,0 l/m 1,1 km/h (1 Bft) O-SO 112 4,8 C 5,8 C 2,1 km/h (1 Bft)
05.11.2012 10:45 5,3 C 96 % 0,0 l/m 1,0 km/h (0 Bft) NO 45 4,7 C 5,8 C 0,0 km/h (0 Bft)
05.11.2012 10:50 5,4 C 96 % 0,0 l/m 1,1 km/h (1 Bft) O-SO 112 4,8 C 6,0 C 2,4 km/h (1 Bft)
05.11.2012 10:55 5,5 C 96 % 0,0 l/m 1,6 km/h (1 Bft) O 90 4,9 C 6,1 C 3,4 km/h (1 Bft)
05.11.2012 11:00 5,8 C 96 % 0,0 l/m 2,9 km/h (1 Bft) S-SO 157 5,2 C 6,2 C 4,8 km/h (1 Bft)
05.11.2012 11:05 5,8 C 96 % 0,0 l/m 2,9 km/h (1 Bft) SO 135 5,2 C 6,4 C 1,9 km/h (1 Bft)
05.11.2012 11:10 5,8 C 96 % 0,0 l/m 2,6 km/h (1 Bft) N-NO 22 5,2 C 6,4 C 2,4 km/h (1 Bft)
05.11.2012 11:15 6,0 C 95 % 0,0 l/m 2,3 km/h (1 Bft) O-SO 112 5,3 C 6,7 C 0,0 km/h (0 Bft)
05.11.2012 11:20 6,2 C 95 % 0,0 l/m 2,4 km/h (1 Bft) O 90 5,5 C 7,3 C 4,3 km/h (1 Bft)
05.11.2012 11:25 6,2 C 95 % 0,0 l/m 3,9 km/h (1 Bft) S 180 5,5 C 7,8 C 5,0 km/h (1 Bft)
05.11.2012 11:30 6,1 C 94 % 0,0 l/m 6,4 km/h (2 Bft) SO 135 5,2 C 7,4 C 13,7 km/h (3 Bft)
05.11.2012 11:35 6,0 C 94 % 0,0 l/m 7,4 km/h (2 Bft) O 90 5,1 C 6,3 C 8,7 km/h (2 Bft)
05.11.2012 11:40 5,9 C 94 % 0,0 l/m 7,1 km/h (2 Bft) SO 135 5,0 C 6,0 C 9,7 km/h (2 Bft)
05.11.2012 11:45 5,7 C 93 % 0,0 l/m 6,9 km/h (2 Bft) SO 135 4,7 C 6,4 C 11,4 km/h (2 Bft)
05.11.2012 11:50 5,4 C 92 % 0,0 l/m 7,9 km/h (2 Bft) O-SO 112 4,2 C 5,6 C 14,2 km/h (3 Bft)
05.11.2012 11:55 5,1 C 91 % 0,0 l/m 8,0 km/h (2 Bft) O 90 3,8 C 5,5 C 8,4 km/h (2 Bft)
05.11.2012 12:00 5,0 C 91 % 0,0 l/m 6,9 km/h (2 Bft) O-SO 112 3,7 C 7,9 C 9,3 km/h (2 Bft)
05.11.2012 12:05 5,0 C 91 % 0,0 l/m 6,0 km/h (2 Bft) O-SO 112 3,7 C 9,2 C 4,5 km/h (1 Bft)
05.11.2012 12:10 5,5 C 91 % 0,0 l/m 2,4 km/h (1 Bft) SO 135 4,2 C 11,7 C 3,9 km/h (1 Bft)
05.11.2012 12:15 6,0 C 90 % 0,0 l/m 1,3 km/h (1 Bft) SO 135 4,5 C 12,0 C 3,4 km/h (1 Bft)
05.11.2012 12:20 6,3 C 90 % 0,0 l/m 4,8 km/h (1 Bft) S 180 4,8 C 11,2 C 11,1 km/h (2 Bft)
05.11.2012 12:25 5,8 C 89 % 0,0 l/m 6,9 km/h (2 Bft) S-SO 157 4,1 C 8,4 C 12,2 km/h (2 Bft)
05.11.2012 12:30 5,3 C 89 % 0,0 l/m 7,2 km/h (2 Bft) O-SO 112 3,6 C 5,7 C 6,9 km/h (2 Bft)
05.11.2012 12:35 5,0 C 89 % 0,0 l/m 6,6 km/h (2 Bft) O 90 3,3 C 5,4 C 11,1 km/h (2 Bft)
05.11.2012 12:40 4,8 C 89 % 0,0 l/m 5,6 km/h (1 Bft) O-SO 112 3,1 C 5,2 C 5,0 km/h (1 Bft)
05.11.2012 12:45 4,6 C 89 % 0,0 l/m 5,6 km/h (1 Bft) SO 135 2,9 C 5,1 C 10,9 km/h (2 Bft)
05.11.2012 12:50 4,6 C 89 % 0,0 l/m 4,2 km/h (1 Bft) O-SO 112 2,9 C 5,9 C 8,0 km/h (2 Bft)
05.11.2012 12:55 4,8 C 89 % 0,0 l/m 5,5 km/h (1 Bft) S 180 3,1 C 6,4 C 6,4 km/h (2 Bft)
05.11.2012 13:00 5,0 C 89 % 0,0 l/m 6,8 km/h (2 Bft) S-SO 157 3,3 C 7,4 C 4,0 km/h (1 Bft)
05.11.2012 13:05 5,0 C 89 % 0,0 l/m 5,6 km/h (1 Bft) S-SO 157 3,3 C 9,2 C 7,4 km/h (2 Bft)
05.11.2012 13:10 5,2 C 86 % 0,0 l/m 7,2 km/h (2 Bft) O-SO 112 3,1 C 7,4 C 11,4 km/h (2 Bft)
05.11.2012 13:15 5,2 C 84 % 0,0 l/m 9,7 km/h (2 Bft) NO 45 2,7 C 4,0 C 7,1 km/h (2 Bft)
05.11.2012 13:20 5,2 C 84 % 0,0 l/m 8,4 km/h (2 Bft) SO 135 2,7 C 4,4 C 10,5 km/h (2 Bft)
05.11.2012 13:25 5,2 C 84 % 0,0 l/m 6,8 km/h (2 Bft) S 180 2,7 C 5,8 C 8,7 km/h (2 Bft)
05.11.2012 13:30 5,2 C 83 % 0,0 l/m 7,6 km/h (2 Bft) SO 135 2,6 C 4,8 C 8,4 km/h (2 Bft)
05.11.2012 13:35 5,4 C 81 % 0,0 l/m 7,6 km/h (2 Bft) SO 135 2,4 C 4,7 C 13,2 km/h (3 Bft)
05.11.2012 13:40 5,9 C 81 % 0,0 l/m 6,9 km/h (2 Bft) S 180 2,9 C 6,0 C 9,8 km/h (2 Bft)
05.11.2012 13:45 6,5 C 77 % 0,0 l/m 7,4 km/h (2 Bft) SO 135 2,8 C 6,1 C 12,9 km/h (3 Bft)
05.11.2012 13:50 6,8 C 82 % 0,0 l/m 6,6 km/h (2 Bft) O 90 3,9 C 7,5 C 5,3 km/h (1 Bft)
05.11.2012 13:55 6,8 C 78 % 0,0 l/m 6,6 km/h (2 Bft) SO 135 3,2 C 7,6 C 10,6 km/h (2 Bft)
05.11.2012 14:00 6,7 C 75 % 0,0 l/m 8,2 km/h (2 Bft) SO 135 2,6 C 5,8 C 9,5 km/h (2 Bft)
05.11.2012 14:05 6,8 C 74 % 0,0 l/m 8,5 km/h (2 Bft) O 90 2,5 C 5,4 C 10,0 km/h (2 Bft)
05.11.2012 14:10 7,0 C 82 % 0,0 l/m 5,6 km/h (1 Bft) O-SO 112 4,1 C 7,9 C 9,8 km/h (2 Bft)
05.11.2012 14:15 6,8 C 81 % 0,0 l/m 4,8 km/h (1 Bft) O 90 3,8 C 8,2 C 3,1 km/h (1 Bft)
05.11.2012 14:20 6,5 C 84 % 0,0 l/m 3,1 km/h (1 Bft) SO 135 4,0 C 8,5 C 1,6 km/h (1 Bft)
05.11.2012 14:25 6,4 C 83 % 0,0 l/m 2,1 km/h (1 Bft) N-NO 22 3,7 C 8,5 C 3,5 km/h (1 Bft)
05.11.2012 14:30 6,2 C 84 % 0,0 l/m 2,6 km/h (1 Bft) N-NO 22 3,7 C 9,3 C 0,0 km/h (0 Bft)
05.11.2012 14:35 6,1 C 85 % 0,0 l/m 2,3 km/h (1 Bft) SO 135 3,8 C 8,9 C 3,5 km/h (1 Bft)
05.11.2012 14:40 6,1 C 85 % 0,0 l/m 1,4 km/h (1 Bft) O-SO 112 3,8 C 8,5 C 1,6 km/h (1 Bft)
05.11.2012 14:45 6,0 C 86 % 0,0 l/m 2,3 km/h (1 Bft) SO 135 3,8 C 8,4 C 5,3 km/h (1 Bft)
05.11.2012 14:50 5,6 C 86 % 0,0 l/m 2,7 km/h (1 Bft) O-SO 112 3,4 C 8,2 C 8,2 km/h (2 Bft)
05.11.2012 14:55 5,7 C 86 % 0,0 l/m 2,6 km/h (1 Bft) NO 45 3,5 C 7,8 C 0,0 km/h (0 Bft)
05.11.2012 15:00 6,1 C 87 % 0,0 l/m 1,8 km/h (1 Bft) NO 45 4,1 C 7,6 C 2,4 km/h (1 Bft)
05.11.2012 15:05 6,3 C 86 % 0,0 l/m 0,5 km/h (0 Bft) O-SO 112 4,1 C 7,7 C 2,4 km/h (1 Bft)
05.11.2012 15:10 6,5 C 85 % 0,0 l/m 1,0 km/h (0 Bft) O-SO 112 4,2 C 7,9 C 1,6 km/h (1 Bft)
05.11.2012 15:15 6,5 C 84 % 0,0 l/m 1,1 km/h (1 Bft) O-SO 112 4,0 C 8,0 C 2,4 km/h (1 Bft)
05.11.2012 15:20 6,4 C 84 % 0,0 l/m 0,6 km/h (0 Bft) N-NW 337 3,9 C 8,0 C 2,3 km/h (1 Bft)
05.11.2012 15:25 6,4 C 85 % 0,0 l/m 0,5 km/h (0 Bft) N-NO 22 4,1 C 7,9 C 0,0 km/h (0 Bft)
05.11.2012 15:30 6,3 C 86 % 0,0 l/m 0,3 km/h (0 Bft) N 360 4,1 C 7,7 C 2,1 km/h (1 Bft)
05.11.2012 15:35 6,3 C 87 % 0,0 l/m 0,6 km/h (0 Bft) O-SO 112 4,3 C 7,6 C 1,9 km/h (1 Bft)
05.11.2012 15:40 6,2 C 85 % 0,0 l/m 1,3 km/h (1 Bft) O-SO 112 3,9 C 7,5 C 1,6 km/h (1 Bft)
05.11.2012 15:45 6,0 C 86 % 0,0 l/m 1,1 km/h (1 Bft) SO 135 3,8 C 7,3 C 0,0 km/h (0 Bft)
05.11.2012 15:50 5,4 C 86 % 0,0 l/m 1,0 km/h (0 Bft) N-NO 22 3,3 C 6,9 C 3,1 km/h (1 Bft)
05.11.2012 15:55 5,1 C 86 % 0,0 l/m 1,1 km/h (1 Bft) N-NO 22 3,0 C 6,5 C 0,0 km/h (0 Bft)
05.11.2012 16:00 4,9 C 86 % 0,0 l/m 1,0 km/h (0 Bft) W-NW 292 2,8 C 6,2 C 0,0 km/h (0 Bft)
05.11.2012 16:05 4,9 C 84 % 0,0 l/m 1,0 km/h (0 Bft) W 270 2,4 C 5,9 C 3,4 km/h (1 Bft)
05.11.2012 16:10 4,6 C 84 % 0,0 l/m 1,1 km/h (1 Bft) N-NW 337 2,1 C 5,5 C 1,6 km/h (1 Bft)
05.11.2012 16:15 4,2 C 86 % 0,0 l/m 1,0 km/h (0 Bft) N-NO 22 2,1 C 5,2 C 0,0 km/h (0 Bft)
05.11.2012 16:20 3,9 C 86 % 0,0 l/m 0,5 km/h (0 Bft) N 360 1,8 C 4,4 C 0,0 km/h (0 Bft)
05.11.2012 16:25 3,9 C 87 % 0,0 l/m 0,6 km/h (0 Bft) N 360 1,9 C 4,3 C 0,0 km/h (0 Bft)
05.11.2012 16:30 4,0 C 86 % 0,0 l/m 0,8 km/h (0 Bft) N 360 1,9 C 4,1 C 1,9 km/h (1 Bft)
05.11.2012 16:35 3,9 C 87 % 0,0 l/m 0,8 km/h (0 Bft) N-NW 337 1,9 C 4,0 C 0,0 km/h (0 Bft)
05.11.2012 16:40 3,8 C 87 % 0,0 l/m 0,8 km/h (0 Bft) N-NO 22 1,8 C 3,9 C 2,1 km/h (1 Bft)
05.11.2012 16:45 3,9 C 87 % 0,0 l/m 0,6 km/h (0 Bft) N-NO 22 1,9 C 3,9 C 0,0 km/h (0 Bft)
05.11.2012 16:50 4,0 C 86 % 0,0 l/m 1,1 km/h (1 Bft) O-SO 112 1,9 C 4,0 C 4,8 km/h (1 Bft)
05.11.2012 16:55 4,3 C 85 % 0,0 l/m 1,4 km/h (1 Bft) O-NO 67 2,0 C 4,3 C 2,3 km/h (1 Bft)
05.11.2012 17:00 4,7 C 82 % 0,0 l/m 1,9 km/h (1 Bft) O-NO 67 1,9 C 4,7 C 1,8 km/h (1 Bft)
05.11.2012 17:05 4,8 C 79 % 0,0 l/m 2,3 km/h (1 Bft) O-SO 112 1,5 C 4,9 C 4,8 km/h (1 Bft)
05.11.2012 17:10 5,1 C 77 % 0,0 l/m 8,4 km/h (2 Bft) SO 135 1,4 C 1,6 C 30,6 km/h (5 Bft)
05.11.2012 17:15 5,1 C 78 % 0,0 l/m 13,8 km/h (3 Bft) SO 135 1,6 C -3,3 C 30,4 km/h (5 Bft)
05.11.2012 17:20 4,8 C 82 % 0,0 l/m 16,4 km/h (3 Bft) O-SO 112 2,0 C -5,7 C 30,7 km/h (5 Bft)
05.11.2012 17:23 4,3 C 83 % 0,0 l/m 16,4 km/h (3 Bft) SO 135 1,7 C -6,7 C 22,5 km/h (4 Bft)
05.11.2012 17:25 4,3 C 83 % 0,0 l/m 16,4 km/h (3 Bft) SO 135 1,7 C -6,7 C 22,5 km/h (4 Bft)
05.11.2012 17:30 4,0 C 85 % 0,0 l/m 14,6 km/h (3 Bft) O-SO 112 1,7 C -6,0 C 14,2 km/h (3 Bft)
05.11.2012 17:35 4,0 C 85 % 0,0 l/m 12,1 km/h (2 Bft) O-SO 112 1,7 C -4,0 C 6,1 km/h (2 Bft)
05.11.2012 17:35 4,0 C 85 % 0,0 l/m 12,1 km/h (2 Bft) O-SO 112 1,7 C -4,0 C 6,1 km/h (2 Bft)
05.11.2012 17:40 3,8 C 86 % 0,0 l/m 9,2 km/h (2 Bft) O-SO 112 1,7 C -1,4 C 4,2 km/h (1 Bft)
05.11.2012 17:45 3,8 C 87 % 0,0 l/m 8,9 km/h (2 Bft) O-SO 112 1,8 C -1,1 C 10,3 km/h (2 Bft)
05.11.2012 17:50 4,1 C 87 % 0,0 l/m 7,7 km/h (2 Bft) SO 135 2,1 C 0,4 C 5,0 km/h (1 Bft)
05.11.2012 17:50 4,1 C 87 % 0,0 l/m 7,7 km/h (2 Bft) SO 135 2,1 C 0,4 C 5,0 km/h (1 Bft)
05.11.2012 17:55 4,1 C 87 % 0,0 l/m 8,5 km/h (2 Bft) O 90 2,1 C -0,4 C 6,4 km/h (2 Bft)
05.11.2012 18:00 4,0 C 88 % 0,0 l/m 8,7 km/h (2 Bft) O-SO 112 2,2 C -0,8 C 14,6 km/h (3 Bft)
05.11.2012 18:05 4,0 C 88 % 0,0 l/m 9,2 km/h (2 Bft) SO 135 2,2 C -1,5 C 14,0 km/h (3 Bft)
05.11.2012 18:05 4,0 C 88 % 0,0 l/m 9,2 km/h (2 Bft) SO 135 2,2 C -1,5 C 14,0 km/h (3 Bft)
05.11.2012 18:10 3,6 C 89 % 0,0 l/m 9,8 km/h (2 Bft) O-SO 112 2,0 C -2,3 C 9,7 km/h (2 Bft)
05.11.2012 18:15 3,4 C 89 % 0,0 l/m 8,9 km/h (2 Bft) O-SO 112 1,8 C -1,5 C 7,9 km/h (2 Bft)
05.11.2012 18:20 3,1 C 89 % 0,0 l/m 8,5 km/h (2 Bft) O-SO 112 1,5 C -1,4 C 11,3 km/h (2 Bft)
05.11.2012 18:20 3,1 C 89 % 0,0 l/m 8,5 km/h (2 Bft) O-SO 112 1,5 C -1,4 C 11,3 km/h (2 Bft)
05.11.2012 18:25 3,1 C 89 % 0,0 l/m 8,9 km/h (2 Bft) O-SO 112 1,5 C -1,8 C 12,1 km/h (2 Bft)
05.11.2012 18:30 3,3 C 89 % 0,0 l/m 10,5 km/h (2 Bft) O 90 1,7 C -3,6 C 14,5 km/h (3 Bft)
05.11.2012 18:35 3,5 C 89 % 0,0 l/m 11,3 km/h (2 Bft) O-SO 112 1,9 C -4,1 C 14,2 km/h (3 Bft)
05.11.2012 18:35 3,5 C 89 % 0,0 l/m 11,3 km/h (2 Bft) O-SO 112 1,9 C -4,1 C 14,2 km/h (3 Bft)
05.11.2012 18:40 3,9 C 89 % 0,0 l/m 10,9 km/h (2 Bft) SO 135 2,3 C -3,2 C 12,4 km/h (3 Bft)
05.11.2012 18:45 4,0 C 89 % 0,0 l/m 10,3 km/h (2 Bft) SO 135 2,4 C -2,5 C 12,9 km/h (3 Bft)
05.11.2012 18:50 4,0 C 89 % 0,0 l/m 10,8 km/h (2 Bft) O-SO 112 2,4 C -3,1 C 18,7 km/h (3 Bft)
05.11.2012 18:50 4,0 C 89 % 0,0 l/m 10,8 km/h (2 Bft) O-SO 112 2,4 C -3,1 C 18,7 km/h (3 Bft)
05.11.2012 18:55 4,0 C 89 % 0,7 l/m 12,2 km/h (2 Bft) SO 135 2,4 C -4,3 C 19,3 km/h (3 Bft)
05.11.2012 19:00 3,8 C 90 % 0,0 l/m 15,9 km/h (3 Bft) O-SO 112 2,3 C -7,6 C 13,8 km/h (3 Bft)
05.11.2012 19:05 3,6 C 90 % 0,0 l/m 15,8 km/h (3 Bft) O-SO 112 2,1 C -7,7 C 11,6 km/h (2 Bft)
05.11.2012 19:05 3,6 C 90 % 0,0 l/m 15,8 km/h (3 Bft) O-SO 112 2,1 C -7,7 C 11,6 km/h (2 Bft)
05.11.2012 19:10 3,5 C 91 % 0,0 l/m 10,8 km/h (2 Bft) O-SO 112 2,2 C -3,6 C 10,3 km/h (2 Bft)
05.11.2012 19:15 3,5 C 91 % 0,0 l/m 8,7 km/h (2 Bft) SO 135 2,2 C -1,3 C 16,4 km/h (3 Bft)
05.11.2012 19:20 3,5 C 92 % 0,0 l/m 7,6 km/h (2 Bft) O-SO 112 2,3 C -0,0 C 10,5 km/h (2 Bft)
05.11.2012 19:20 3,5 C 92 % 0,0 l/m 7,6 km/h (2 Bft) O-SO 112 2,3 C -0,0 C 10,5 km/h (2 Bft)
05.11.2012 19:25 3,4 C 92 % 0,0 l/m 7,6 km/h (2 Bft) O-SO 112 2,2 C -0,0 C 14,5 km/h (3 Bft)
05.11.2012 19:30 3,6 C 93 % 0,0 l/m 7,4 km/h (2 Bft) W-NW 292 2,6 C 0,4 C 6,4 km/h (2 Bft)
05.11.2012 19:35 3,6 C 93 % 0,0 l/m 8,0 km/h (2 Bft) O 90 2,6 C -0,3 C 12,6 km/h (3 Bft)
05.11.2012 19:40 3,8 C 93 % 0,0 l/m 9,7 km/h (2 Bft) S-SO 157 2,8 C -1,8 C 9,8 km/h (2 Bft)
05.11.2012 19:45 3,9 C 93 % 0,0 l/m 10,1 km/h (2 Bft) O-SO 112 2,9 C -2,1 C 11,4 km/h (2 Bft)
05.11.2012 19:50 4,0 C 92 % 0,0 l/m 10,8 km/h (2 Bft) SO 135 2,8 C -2,7 C 12,4 km/h (3 Bft)
05.11.2012 19:55 3,9 C 92 % 0,0 l/m 10,9 km/h (2 Bft) O-SO 112 2,7 C -2,9 C 10,9 km/h (2 Bft)
05.11.2012 20:00 3,9 C 92 % 0,0 l/m 10,0 km/h (2 Bft) O-SO 112 2,7 C -2,1 C 14,0 km/h (3 Bft)
05.11.2012 20:05 3,8 C 92 % 0,0 l/m 9,3 km/h (2 Bft) SO 135 2,6 C -1,3 C 14,3 km/h (3 Bft)
05.11.2012 20:10 3,7 C 92 % 0,0 l/m 9,7 km/h (2 Bft) O-SO 112 2,5 C -1,9 C 17,7 km/h (3 Bft)
05.11.2012 20:15 3,7 C 91 % 0,0 l/m 10,1 km/h (2 Bft) O-SO 112 2,4 C -2,3 C 11,9 km/h (2 Bft)
05.11.2012 20:20 3,6 C 91 % 0,0 l/m 10,1 km/h (2 Bft) O-SO 112 2,3 C -2,3 C 12,2 km/h (2 Bft)
05.11.2012 20:25 3,6 C 90 % 0,0 l/m 10,5 km/h (2 Bft) S-SO 157 2,1 C -2,7 C 13,2 km/h (3 Bft)
05.11.2012 20:30 3,6 C 90 % 0,0 l/m 10,8 km/h (2 Bft) SO 135 2,1 C -3,1 C 9,5 km/h (2 Bft)
05.11.2012 20:35 3,5 C 90 % 0,0 l/m 9,5 km/h (2 Bft) SO 135 2,0 C -1,8 C 11,1 km/h (2 Bft)
05.11.2012 20:40 3,4 C 90 % 0,0 l/m 9,7 km/h (2 Bft) SO 135 1,9 C -2,0 C 15,4 km/h (3 Bft)
05.11.2012 20:45 3,4 C 90 % 0,0 l/m 10,1 km/h (2 Bft) O-SO 112 1,9 C -2,5 C 10,5 km/h (2 Bft)
05.11.2012 20:50 3,3 C 90 % 0,0 l/m 10,1 km/h (2 Bft) N-NO 22 1,8 C -2,6 C 19,3 km/h (3 Bft)
05.11.2012 20:55 3,2 C 91 % 0,0 l/m 9,3 km/h (2 Bft) O-SO 112 1,9 C -1,9 C 9,8 km/h (2 Bft)
05.11.2012 21:00 3,2 C 91 % 0,0 l/m 10,1 km/h (2 Bft) O-SO 112 1,9 C -3,0 C 13,7 km/h (3 Bft)
05.11.2012 21:05 3,0 C 91 % 0,0 l/m 10,3 km/h (2 Bft) SO 135 1,7 C -3,5 C 10,8 km/h (2 Bft)
05.11.2012 21:10 3,4 C 91 % 0,0 l/m 10,6 km/h (2 Bft) SO 135 2,1 C -3,6 C 9,3 km/h (2 Bft)
05.11.2012 21:15 3,3 C 91 % 0,0 l/m 11,4 km/h (2 Bft) NO 45 2,0 C -4,4 C 11,9 km/h (2 Bft)
05.11.2012 21:20 2,7 C 92 % 0,0 l/m 11,7 km/h (2 Bft) O-SO 112 1,5 C -5,2 C 20,1 km/h (4 Bft)
05.11.2012 21:25 2,6 C 92 % 0,7 l/m 11,3 km/h (2 Bft) O 90 1,4 C -5,2 C 14,2 km/h (3 Bft)
05.11.2012 21:30 2,8 C 93 % 0,0 l/m 10,5 km/h (2 Bft) O-SO 112 1,8 C -4,2 C 14,0 km/h (3 Bft)
05.11.2012 21:35 2,9 C 93 % 0,0 l/m 9,3 km/h (2 Bft) O-SO 112 1,9 C -2,7 C 9,2 km/h (2 Bft)
05.11.2012 21:40 2,9 C 93 % 0,0 l/m 8,7 km/h (2 Bft) O-SO 112 1,9 C -2,0 C 9,0 km/h (2 Bft)
05.11.2012 21:45 2,9 C 94 % 0,0 l/m 7,7 km/h (2 Bft) SO 135 2,0 C -0,8 C 4,7 km/h (1 Bft)
05.11.2012 21:50 2,6 C 94 % 0,0 l/m 8,2 km/h (2 Bft) SO 135 1,7 C -1,8 C 10,5 km/h (2 Bft)
05.11.2012 21:55 2,6 C 94 % 0,0 l/m 9,0 km/h (2 Bft) O-SO 112 1,7 C -2,9 C 9,3 km/h (2 Bft)
05.11.2012 22:00 2,2 C 94 % 0,0 l/m 7,9 km/h (2 Bft) S-SO 157 1,3 C -1,7 C 6,8 km/h (2 Bft)
05.11.2012 22:05 2,1 C 94 % 0,0 l/m 6,8 km/h (2 Bft) O 90 1,2 C -0,4 C 10,6 km/h (2 Bft)
05.11.2012 22:10 2,3 C 94 % 0,0 l/m 6,6 km/h (2 Bft) O 90 1,4 C -0,1 C 7,2 km/h (2 Bft)
05.11.2012 22:15 2,3 C 94 % 0,0 l/m 6,8 km/h (2 Bft) SO 135 1,4 C -0,3 C 5,1 km/h (1 Bft)
05.11.2012 22:20 2,2 C 94 % 0,0 l/m 5,6 km/h (1 Bft) O-SO 112 1,3 C 0,4 C 5,5 km/h (1 Bft)
05.11.2012 22:25 2,1 C 94 % 0,0 l/m 5,3 km/h (1 Bft) SO 135 1,2 C 0,4 C 8,5 km/h (2 Bft)
05.11.2012 22:30 2,0 C 94 % 0,0 l/m 5,1 km/h (1 Bft) SO 135 1,1 C 0,5 C 7,6 km/h (2 Bft)
05.11.2012 22:35 2,0 C 95 % 0,0 l/m 5,0 km/h (1 Bft) O-SO 112 1,3 C 0,6 C 7,1 km/h (2 Bft)
05.11.2012 22:40 1,9 C 95 % 0,0 l/m 6,0 km/h (2 Bft) O-SO 112 1,2 C 0,2 C 10,8 km/h (2 Bft)
05.11.2012 22:45 1,8 C 95 % 0,0 l/m 6,3 km/h (2 Bft) SO 135 1,1 C 0,2 C 8,0 km/h (2 Bft)
05.11.2012 22:50 2,0 C 95 % 0,0 l/m 6,1 km/h (2 Bft) O 90 1,3 C 0,2 C 8,4 km/h (2 Bft)
05.11.2012 22:55 2,1 C 95 % 0,0 l/m 6,3 km/h (2 Bft) O-SO 112 1,4 C 0,2 C 7,9 km/h (2 Bft)
05.11.2012 23:00 2,2 C 95 % 0,0 l/m 5,8 km/h (2 Bft) O-SO 112 1,5 C 0,3 C 6,4 km/h (2 Bft)
05.11.2012 23:05 2,2 C 95 % 0,0 l/m 4,5 km/h (1 Bft) O-SO 112 1,5 C 0,8 C 3,7 km/h (1 Bft)
05.11.2012 23:10 2,5 C 94 % 0,0 l/m 5,3 km/h (1 Bft) SO 135 1,6 C 0,6 C 6,0 km/h (2 Bft)
05.11.2012 23:15 2,3 C 94 % 0,0 l/m 6,1 km/h (2 Bft) SO 135 1,4 C 0,3 C 9,2 km/h (2 Bft)
05.11.2012 23:20 2,6 C 94 % 0,0 l/m 10,0 km/h (2 Bft) SO 135 1,7 C -3,8 C 19,6 km/h (3 Bft)
05.11.2012 23:25 2,8 C 93 % 0,0 l/m 11,6 km/h (2 Bft) SO 135 1,8 C -4,9 C 10,5 km/h (2 Bft)
05.11.2012 23:30 2,7 C 92 % 0,0 l/m 11,4 km/h (2 Bft) NO 45 1,5 C -4,7 C 21,1 km/h (4 Bft)
05.11.2012 23:35 3,1 C 90 % 0,0 l/m 12,4 km/h (3 Bft) O-SO 112 1,6 C -5,3 C 17,7 km/h (3 Bft)
05.11.2012 23:40 3,5 C 87 % 0,0 l/m 12,9 km/h (3 Bft) SO 135 1,5 C -5,2 C 15,3 km/h (3 Bft)
05.11.2012 23:45 3,5 C 85 % 0,0 l/m 13,4 km/h (3 Bft) O-SO 112 1,2 C -5,5 C 17,5 km/h (3 Bft)
05.11.2012 23:50 3,9 C 84 % 0,0 l/m 15,9 km/h (3 Bft) O-SO 112 1,4 C -6,9 C 42,3 km/h (6 Bft)
05.11.2012 23:55 4,0 C 81 % 0,0 l/m 17,1 km/h (3 Bft) SO 135 1,0 C -7,7 C 10,9 km/h (2 Bft)
_ Min-Zeit 22:45 14:05 - 09:45 - - 23:55 19:05 16:45
Minimum _ 1,8 C 74 % - 0,0 km/h (0 Bft) - - 1,0 C -7,7 C 0,0 km/h (0 Bft)
_ Max-Zeit 14:10 07:40 21:25 23:55 - - 11:25 12:15 23:50
Maximum _ 7,0 C 98 % 0,7 l/m 17,1 km/h
SO (3 Bft)
- - 5,5 C 12,0 C 42,3 km/h
O-SO (6 Bft)
Durchschnitt _ 4,0 C 92 % #12,4 l/m 4,7 km/h (1 Bft) O-SO - 2,8 C 2,3 C 6,3 km/h (2 Bft)